This is the latest recevied weather packets stored in our database for station/object KA8DUX-2. If no packets are shown the sender has not sent any weather packets the latest 10 day(s).
| Time | Temp. | Humidity | Pressure | Rain* | Wind** | Luminosity | Snow |
|---|---|---|---|---|---|---|---|
| 1778212684 | 5.56° C | 76% | 1010.4 hPa | 0 mm | - | 0 W/m² | - |
| 1778212381 | 5.56° C | 74% | 1010.3 hPa | 0 mm | - | 0 W/m² | - |
| 1778212077 | 5.56° C | 74% | 1010 hPa | 0 mm | - | 0 W/m² | - |
| 1778211775 | 6.11° C | 73% | 1010.2 hPa | 0 mm | - | 0 W/m² | - |
| 1778211472 | 6.11° C | 73% | 1010.3 hPa | 0 mm | - | 0 W/m² | - |
| 1778211170 | 6.11° C | 73% | 1010.4 hPa | 0 mm | - | 0 W/m² | - |
| 1778210867 | 6.11° C | 74% | 1010.3 hPa | 0 mm | - | 0 W/m² | - |
| 1778210564 | 6.11° C | 73% | 1010.5 hPa | 0 mm | - | 0 W/m² | - |
| 1778210261 | 6.11° C | 74% | 1010.3 hPa | 0 mm | - | 0 W/m² | - |
| 1778209957 | 6.67° C | 73% | 1010.4 hPa | 0 mm | - | 0 W/m² | - |
| 1778209654 | 6.67° C | 73% | 1010.4 hPa | 0 mm | - | 0 W/m² | - |
| 1778209351 | 6.67° C | 72% | 1010.4 hPa | 0 mm | - | 0 W/m² | - |
| 1778209048 | 6.67° C | 72% | 1010.4 hPa | 0 mm | - | 0 W/m² | - |
| 1778208745 | 6.67° C | 71% | 1010.4 hPa | 0 mm | - | 0 W/m² | - |
| 1778208441 | 6.11° C | 71% | 1010.4 hPa | 0 mm | - | 0 W/m² | - |
| 1778208138 | 6.11° C | 71% | 1010.5 hPa | 0 mm | - | 0 W/m² | - |
| 1778207835 | 6.11° C | 70% | 1010.4 hPa | 0 mm | - | 0 W/m² | - |
| 1778207532 | 6.67° C | 69% | 1010.5 hPa | 0 mm | - | 0 W/m² | - |
| 1778207228 | 6.67° C | 69% | 1010.3 hPa | 0 mm | - | 0 W/m² | - |
| 1778206925 | 6.67° C | 69% | 1010.1 hPa | 0 mm | - | 0 W/m² | - |
| 1778206621 | 7.22° C | 67% | 1010.1 hPa | 0 mm | - | 0 W/m² | - |
| 1778206316 | 7.22° C | 65% | 1010 hPa | 0 mm | - | 0 W/m² | - |
| 1778206014 | 7.78° C | 64% | 1010.2 hPa | 0 mm | - | 0 W/m² | - |
| 1778205712 | 7.78° C | 64% | 1009.8 hPa | 0 mm | - | 0 W/m² | - |
| 1778205409 | 7.78° C | 63% | 1009.8 hPa | 0 mm | - | 0 W/m² | - |
* Rain latest hour (hover to see other rain measurements)
** Current wind speed in m/s (hover to see current wind gust speed)